GEFSGL_850_meantemp_000.txt.gz
Temperature
16 16 15 16 16 16 15 15 14 14 14 14 15 15 15 15 15 14 15 15 15 15 15 16 17 16 16 16 16 16 15 15 15 12 12 12 11 11 12 11 11 12 12
17 16 15 15 15 15 14 15 14 14 14 15 15 15 15 15 15 14 14 15 15 15 16 16 17 16 16 16 16 15 15 15 14 13 12 11 11 11 11 11 11 10 11
16 16 16 15 15 14 14 14 13 14 14 15 15 15 15 15 15 15 15 15 15 15 16 16 16 16 16 16 16 16 15 15 14 13 14 12 11 11 11 10 10 10 11
16 16 15 14 14 13 13 13 13 13 13 14 14 15 15 16 15 15 14 15 15 15 16 16 17 16 16 16 16 16 15 15 14 13 12 12 11 11 10 10 9 9 8
16 16 15 14 13 13 12 12 13 13 13 13 14 14 14 15 15 14 14 15 15 15 16 16 16 16 16 16 16 16 16 15 14 14 12 13 11 11 10 10 9 8 8
15 15 15 14 12 12 12 12 12 12 13 13 13 14 14 14 14 15 15 15 14 14 14 14 15 15 16 16 16 15 16 16 15 14 13 13 13 11 10 10 9 9 8
14 14 14 13 12 12 12 12 12 12 12 13 13 14 14 13 14 14 14 15 14 13 13 13 13 15 15 16 16 16 16 16 15 15 14 13 12 11 11 10 10 10 9
14 13 13 12 12 11 12 12 12 12 12 13 13 14 13 13 13 13 13 13 13 13 13 13 13 14 15 15 16 16 16 16 15 14 14 14 13 12 12 12 11 10 9
13 13 13 12 11 11 11 11 11 12 12 12 12 13 13 13 13 13 13 13 13 13 13 13 13 14 15 15 15 15 14 14 15 14 14 13 13 13 12 11 10 10 9
13 12 12 12 11 11 11 11 11 12 12 12 12 12 12 12 12 13 13 13 13 13 13 13 13 14 15 15 15 15 14 14 15 14 14 13 13 13 12 11 11 11 9
12 12 11 11 11 11 11 11 11 12 12 12 12 12 12 12 12 13 13 13 13 13 13 13 14 14 14 14 14 14 14 14 15 13 13 13 13 13 12 11 10 10 10
11 11 11 11 11 11 11 11 11 12 12 12 12 12 12 12 12 13 13 12 12 12 12 12 13 13 13 14 14 14 14 14 14 13 13 12 12 12 12 12 11 10 9
10 10 10 10 11 10 11 11 11 11 12 11 11 11 11 11 11 12 12 12 12 12 12 12 12 12 13 14 14 13 14 14 14 13 12 12 12 12 12 12 11 10 10
10 10 10 10 10 11 11 11 11 12 11 11 11 11 11 11 12 11 11 11 11 11 11 11 11 12 13 13 13 13 13 13 13 12 12 12 12 12 11 11 11 11 10
10 9 9 10 10 10 10 10 11 11 11 11 11 11 11 11 11 11 11 11 11 10 11 11 11 12 12 12 12 13 13 13 13 13 13 13 12 11 11 11 11 10 9
10 10 10 10 10 10 11 11 11 11 11 11 11 11 10 10 10 11 11 11 11 11 10 10 10 10 11 11 11 12 13 13 13 13 12 12 12 11 11 11 11 9 8
10 10 10 10 11 11 11 11 11 11 11 10 11 10 10 10 10 11 11 11 11 10 10 10 10 10 11 11 11 12 12 12 13 12 12 12 11 10 10 11 10 9 7
11 11 11 11 11 11 11 11 10 10 10 10 10 10 10 10 10 11 11 10 10 10 10 10 9 10 10 11 11 12 12 12 12 12 12 11 11 10 10 9 9 8 7
11 11 11 11 11 11 11 10 10 10 10 10 10 9 9 9 10 10 10 10 10 10 10 10 10 10 10 11 11 11 12 12 12 12 11 11 11 10 10 8 8 7 7
10 10 10 11 11 11 11 11 10 10 10 10 10 10 9 9 9 9 10 10 9 10 10 10 10 10 10 10 11 11 11 11 11 11 11 11 10 10 9 8 7 7 8
10 10 10 10 10 10 10 10 10 10 10 10 10 9 9 9 9 9 10 10 9 10 10 10 10 10 10 10 11 11 11 11 11 11 11 11 11 10 10 9 8 8 7
10 10 10 10 10 10 10 10 10 10 10 10 9 9 9 9 9 10 10 9 9 10 10 10 10 10 10 11 11 11 11 11 11 11 11 11 11 10 10 9 8 7 7
9 10 10 10 10 10 10 10 10 10 10 10 10 10 10 10 10 10 10 10 9 9 10 10 10 10 11 12 11 11 11 11 11 11 11 11 11 10 10 9 8 8 7
9 9 10 10 10 10 10 10 10 10 10 10 10 10 10 10 10 10 10 10 10 10 10 10 10 11 12 12 12 12 12 11 11 11 11 10 10 10 9 9 9 8 7
9 10 10 10 10 10 10 10 10 10 10 10 10 10 10 10 10 10 10 10 10 10 10 10 10 11 11 11 12 12 12 11 11 11 11 10 10 9 9 9 8 7 7
10 10 10 10 10 10 10 10 10 10 10 10 10 10 10 10 10 10 10 10 10 10 10 10 10 10 11 11 11 11 11 11 11 10 10 10 10 9 9 9 8 7 6

GEFSGL_850_meantemp_006.txt.gz
Temperature
15 16 16 16 16 15 15 16 16 16 17 16 16 16 16 16 16 16 16 16 16 15 15 15 15 16 16 16 16 16 16 16 16 14 13 12 12 12 12 12 13 13 13
16 16 16 16 16 15 15 16 16 16 16 16 16 16 16 16 16 16 16 15 15 15 15 15 15 15 15 15 16 16 16 16 16 16 13 12 11 11 11 11 12 12 12
16 16 16 15 16 16 16 16 16 16 16 15 15 15 15 15 16 16 16 15 15 15 15 15 16 16 15 15 16 16 16 16 16 16 15 13 11 11 10 10 11 11 12
16 16 15 15 15 16 16 16 16 15 15 15 15 15 15 15 15 15 16 15 16 16 16 16 16 16 16 16 17 16 16 16 16 15 15 13 11 10 10 10 11 11 11
16 15 15 15 16 16 16 15 14 14 14 15 15 15 15 15 15 15 15 15 16 16 16 16 16 17 17 17 16 16 16 16 16 15 15 14 12 11 10 10 10 10 10
16 15 15 15 16 16 16 15 14 14 14 14 14 14 14 14 15 15 15 15 15 15 15 16 16 16 16 16 16 16 16 15 16 16 15 15 14 12 11 10 10 10 10
16 15 15 15 16 16 15 15 14 14 13 13 14 14 14 14 15 15 15 15 15 15 15 15 15 16 16 16 16 16 15 14 15 15 16 16 15 14 12 11 10 10 10
16 16 15 15 15 15 14 14 14 13 13 13 13 13 13 14 14 15 15 15 15 15 14 14 15 15 15 15 15 15 15 14 14 15 15 16 15 15 13 12 11 10 9
16 16 15 14 14 14 13 13 13 13 12 13 13 13 13 13 14 14 14 14 14 13 13 14 14 14 14 14 15 15 15 15 15 15 15 15 15 15 14 12 11 10 9
16 15 14 14 14 13 13 13 13 12 12 12 13 13 13 13 13 13 13 13 13 13 13 13 13 14 13 13 14 15 14 14 15 15 15 15 14 14 13 13 13 11 10
15 14 14 14 13 13 13 13 12 12 12 12 12 13 13 13 13 13 13 12 13 13 13 13 13 13 13 13 13 14 14 13 14 15 14 14 14 13 13 12 12 12 11
13 13 13 13 12 12 12 12 12 12 12 12 12 12 12 12 13 13 13 12 12 13 13 13 13 13 12 12 12 13 13 13 13 13 14 14 14 14 13 13 12 12 11
12 12 12 12 12 12 12 12 12 12 12 12 12 12 12 12 12 12 12 12 12 12 13 13 13 12 12 12 12 12 12 12 12 13 13 13 13 13 13 12 11 11 10
11 11 11 11 11 12 12 12 12 12 12 12 12 12 12 12 12 12 12 12 12 12 12 13 12 12 11 11 11 11 11 12 12 13 13 12 12 12 12 12 11 10 10
11 10 10 11 11 11 11 11 11 11 12 12 12 12 12 12 12 12 12 12 12 12 12 12 12 12 11 11 11 11 11 11 12 13 13 13 12 12 12 12 11 11 11
11 11 10 11 11 11 11 11 11 11 11 12 12 12 12 12 12 11 11 11 11 11 11 11 12 12 11 11 11 11 11 11 12 13 13 13 13 12 12 12 12 11 11
11 11 11 11 11 11 11 11 11 11 11 12 12 11 11 11 11 11 11 11 10 10 10 11 11 11 11 11 11 11 11 11 12 12 13 13 13 12 12 12 12 12 11
11 11 11 11 11 11 11 11 11 11 11 11 11 11 11 11 11 11 11 10 10 10 10 10 10 10 11 11 11 11 11 11 11 12 12 12 12 12 13 13 13 12 11
12 11 11 11 11 11 11 11 11 11 11 11 11 11 10 10 10 10 10 10 10 10 10 10 10 10 10 10 10 10 11 11 11 11 12 12 12 12 12 13 13 12 11
11 11 11 11 11 11 11 11 11 11 10 10 10 10 10 10 10 10 9 9 9 9 9 9 9 10 10 10 10 10 10 10 10 11 11 11 11 12 12 12 12 12 11
11 11 11 11 11 11 11 11 11 10 10 10 10 9 10 9 9 9 9 9 9 9 9 9 9 9 9 10 10 10 10 10 10 11 11 11 11 11 12 12 12 11 10
10 10 10 11 11 11 11 11 10 10 10 10 10 10 10 9 9 9 9 9 9 9 9 9 9 9 9 9 9 9 9 9 10 10 11 11 11 11 11 11 11 11 10
10 10 10 10 11 11 11 11 11 10 10 10 10 10 10 10 10 10 10 10 9 9 9 9 9 9 9 9 9 9 9 9 10 10 10 11 11 11 11 11 11 10 10
10 10 10 10 10 10 10 10 10 10 10 10 10 10 10 10 10 10 10 10 10 9 9 9 9 9 9 9 9 9 9 9 9 10 9 10 10 10 10 10 10 10 9
10 10 10 10 10 10 10 10 10 10 10 10 10 10 10 10 10 10 10 10 10 10 10 10 10 9 9 9 9 9 9 9 9 9 9 9 9 9 9 9 9 9 9
10 10 10 10 10 10 10 10 10 10 10 10 10 10 10 10 10 10 10 10 10 10 10 10 9 9 9 9 9 9 9 9 9 9 9 9 9 9 9 9 8 8 8

GEFSGL_850_meantemp_012.txt.gz
Temperature
16 16 15 15 15 16 16 16 16 16 16 16 16 16 16 16 16 16 16 16 16 16 16 16 16 16 16 16 16 16 15 15 16 15 15 13 13 12 12 12 12 12 13
16 16 15 15 15 15 16 16 16 16 16 16 16 16 16 16 16 16 16 16 16 16 16 16 16 16 15 15 15 15 15 15 15 16 15 14 13 12 12 11 11 12 12
16 16 15 15 15 15 15 16 16 16 16 15 15 15 15 15 15 15 15 15 15 15 15 15 15 15 15 14 14 15 15 15 15 15 15 15 13 12 11 11 11 11 12
16 16 16 15 15 15 15 16 16 16 15 15 15 15 15 15 15 15 15 15 15 15 15 15 15 15 15 14 14 14 14 15 15 15 15 15 13 12 11 11 11 11 11
17 16 16 16 16 15 15 15 15 15 15 15 15 15 15 15 15 15 15 15 15 15 15 15 15 15 15 15 15 15 15 15 15 14 14 15 14 13 13 12 11 11 11
17 16 16 16 16 15 15 15 15 15 15 15 15 14 14 14 14 14 14 14 15 15 15 15 15 15 15 15 15 15 15 16 15 15 14 15 16 15 15 13 12 11 11
17 16 16 16 16 15 15 15 15 15 15 15 14 14 14 14 14 14 14 14 14 15 15 15 15 15 15 15 16 16 16 16 16 16 15 16 16 16 15 14 13 12 11
17 16 16 15 15 15 15 15 15 15 15 14 14 14 14 14 14 13 14 14 14 15 15 15 15 15 15 15 15 16 16 15 15 15 15 15 15 14 14 14 13 12 10
17 16 16 16 15 15 15 15 15 14 14 14 14 13 13 13 13 13 13 14 14 14 15 15 14 14 14 14 14 15 15 15 15 15 14 14 15 14 14 13 12 11 10
16 16 16 15 15 15 15 14 14 14 14 13 13 13 12 12 12 13 13 13 14 14 14 14 14 14 14 14 14 14 14 15 15 15 14 14 14 14 14 13 13 12 11
15 15 15 15 14 14 14 14 13 13 13 13 13 12 12 12 12 12 13 13 13 13 13 13 13 13 13 13 13 14 14 14 14 14 14 14 14 14 14 14 13 13 12
13 13 13 13 13 13 13 13 13 13 12 12 12 12 12 12 12 12 12 13 13 13 13 13 13 13 13 13 13 13 13 13 13 13 14 14 14 14 15 14 14 13 12
12 12 12 12 12 12 12 12 12 12 12 12 12 12 12 12 12 12 12 12 13 13 13 13 13 13 13 12 12 12 12 12 12 13 13 14 14 14 14 14 13 12 11
11 11 11 11 11 11 12 12 12 12 12 12 12 12 12 12 12 12 12 12 12 12 12 12 13 13 12 12 12 12 12 11 12 12 12 13 13 13 13 13 13 12 11
11 11 10 10 10 11 11 11 11 11 12 12 12 12 12 12 12 12 12 12 12 12 12 12 12 12 12 12 12 11 11 11 11 11 11 12 12 12 12 12 12 12 11
11 11 10 10 10 10 11 11 11 11 11 11 11 11 12 12 12 12 12 12 12 11 11 12 12 12 12 12 11 11 11 11 11 11 11 11 11 12 12 11 11 11 11
11 11 11 10 10 10 11 11 11 11 11 11 11 11 11 11 12 12 12 11 11 11 11 11 11 11 11 11 11 11 10 11 11 11 11 11 11 11 11 11 11 11 11
11 11 11 11 11 10 10 10 10 10 11 11 11 11 11 11 11 11 11 11 11 11 11 10 10 10 10 11 11 10 10 10 10 10 11 11 11 11 11 11 11 11 11
11 11 11 11 11 11 11 10 10 10 10 10 11 11 11 11 11 10 10 10 10 10 10 10 10 10 10 10 10 10 10 10 10 10 10 10 11 11 11 10 10 10 10
11 11 11 11 11 11 11 11 11 11 10 10 10 10 10 10 10 10 10 10 10 9 9 9 9 9 9 10 10 10 10 10 10 10 10 10 10 10 10 10 10 10 10
11 11 11 11 11 11 11 11 11 11 10 10 10 10 10 10 10 10 10 9 9 9 9 9 9 9 9 9 9 9 9 9 10 10 10 10 10 10 10 10 10 10 10
10 10 10 11 11 11 11 10 10 10 10 10 10 10 10 9 9 10 9 9 9 9 9 9 9 9 9 9 9 9 9 9 9 9 9 9 9 9 9 9 9 9 9
10 10 10 10 10 10 10 10 10 10 10 10 10 10 10 10 10 9 9 9 9 9 9 9 9 9 9 9 9 9 9 9 9 9 9 9 9 9 9 9 9 9 9
10 10 10 10 10 10 10 10 10 10 10 10 10 10 10 10 10 10 9 9 9 9 9 9 9 9 9 9 9 9 9 9 9 9 9 9 9 9 9 8 9 9 9
10 10 10 10 10 10 10 10 10 10 10 10 10 10 10 10 10 10 10 10 9 9 9 9 9 9 9 9 9 9 9 9 9 9 9 9 8 8 8 9 9 8 8
10 10 10 10 10 10 10 10 10 10 10 10 10 10 10 10 10 10 10 10 9 9 9 9 9 9 9 9 9 9 9 9 9 9 8 8 8 8 8 8 8 8 8

GEFSGL_850_meantemp_018.txt.gz
Temperature
17 16 16 15 15 15 15 15 15 15 15 15 15 15 14 14 14 14 14 15 15 15 15 15 16 16 16 16 16 15 15 15 15 15 15 15 15 14 13 13 13 13 13
17 16 16 15 15 15 15 15 15 15 15 15 15 15 15 14 14 14 14 15 15 15 15 15 15 15 15 15 15 15 15 15 15 15 15 15 15 14 13 13 12 12 12
17 16 16 15 15 15 15 15 15 14 14 14 14 14 14 14 14 14 14 14 15 15 15 15 15 15 15 15 15 15 15 15 15 14 15 15 15 14 14 13 13 12 12
17 16 16 16 15 15 15 15 14 14 14 14 14 14 14 14 14 14 14 14 14 14 14 15 15 15 15 15 15 15 15 14 14 14 14 14 15 15 14 14 13 12 12
17 17 17 16 16 15 15 15 14 14 14 14 14 14 14 14 14 14 14 14 14 14 14 14 15 15 15 15 15 15 14 14 14 13 13 14 14 15 15 15 14 12 12
17 17 17 16 16 15 15 15 15 15 14 14 14 14 14 14 14 14 14 14 14 14 14 14 14 15 15 15 15 15 14 14 14 13 13 14 15 15 15 15 14 13 12
17 17 17 16 16 16 15 15 15 15 14 14 14 14 14 14 14 14 14 14 14 14 14 14 14 15 15 15 15 15 14 14 14 14 14 14 15 15 15 15 14 14 13
17 17 16 16 16 16 15 15 15 14 14 14 14 14 14 14 14 14 14 14 14 14 14 14 14 14 15 15 15 15 15 15 14 14 14 14 15 15 15 14 14 13 12
17 16 16 16 15 15 15 15 14 14 14 14 14 14 14 14 14 14 14 13 13 13 14 14 14 14 15 15 15 15 15 15 15 14 14 14 14 14 14 14 13 13 12
16 16 16 15 15 15 15 14 14 14 14 13 13 13 13 14 14 13 13 13 13 13 13 14 14 14 14 14 14 14 14 14 14 14 14 14 13 13 14 14 13 13 13
14 14 14 15 15 15 14 14 14 13 13 13 13 13 13 13 13 13 13 13 13 13 13 13 14 14 14 14 14 14 14 14 13 13 13 13 13 13 13 14 13 13 13
13 13 13 13 13 14 14 14 13 13 13 12 13 13 13 13 13 12 12 12 12 12 13 13 13 13 13 13 13 13 13 13 13 13 13 13 13 13 13 13 13 13 12
12 12 12 12 12 12 12 12 12 12 12 12 12 12 12 12 12 12 12 12 12 12 12 12 12 12 12 12 12 12 12 12 12 12 13 13 13 12 12 12 12 12 11
11 11 11 11 11 11 11 11 12 12 12 12 12 12 12 12 12 12 12 12 12 12 12 12 12 12 12 12 12 12 12 12 12 12 12 12 12 11 12 12 12 12 11
11 11 11 10 10 11 11 11 11 11 11 12 12 11 11 12 12 12 12 12 12 12 11 12 12 12 12 12 12 12 11 12 12 12 12 11 11 11 11 11 11 11 11
11 11 11 10 10 10 10 11 11 11 11 11 11 11 11 11 11 11 12 11 11 11 11 11 11 11 11 11 11 11 11 11 11 11 11 11 11 11 11 11 11 11 11
11 11 11 10 10 10 10 10 10 11 10 10 11 11 11 11 11 11 12 11 11 11 11 11 11 10 10 10 11 11 11 11 11 11 10 10 10 10 10 10 10 10 10
11 11 11 11 10 10 10 10 10 10 10 10 10 10 10 11 11 11 11 11 11 11 11 10 10 10 10 10 10 10 10 10 10 10 10 10 10 10 10 10 10 10 10
11 11 11 11 10 10 10 10 10 10 10 10 10 10 10 10 10 10 10 10 10 10 10 9 9 9 9 9 9 10 10 10 10 10 10 10 10 10 10 10 10 10 10
11 11 11 11 11 10 10 10 10 10 10 10 10 10 10 10 10 10 10 10 10 10 9 9 9 9 9 9 9 9 9 10 10 10 10 10 10 10 9 10 10 10 10
11 11 11 11 10 10 10 10 10 10 10 10 9 9 9 9 9 9 9 9 9 9 9 9 9 9 9 9 9 9 9 9 9 9 9 9 9 9 9 9 9 9 9
11 11 11 10 10 10 10 10 10 10 10 10 9 9 9 9 9 9 9 9 9 9 9 9 9 9 9 9 9 9 9 9 9 9 9 9 9 9 9 9 9 9 9
11 10 10 10 10 10 10 10 10 10 10 10 10 9 9 9 9 9 9 9 9 9 9 9 9 9 9 9 9 9 9 9 9 9 9 9 9 9 9 9 9 9 9
10 10 10 10 10 10 10 10 10 10 10 10 10 10 10 10 9 9 9 9 9 9 9 9 9 9 9 9 9 9 9 9 9 9 9 9 9 9 9 9 9 9 8
10 10 10 10 10 10 10 10 10 10 10 10 10 10 10 10 10 9 9 9 9 9 9 9 9 9 9 9 9 9 9 9 9 9 9 9 9 9 9 8 8 8 8
10 10 10 10 10 10 10 10 10 10 10 10 10 10 9 9 9 9 9 9 9 9 9 9 9 9 9 9 9 9 9 9 9 8 8 8 8 8 8 8 8 7 7